TimeMST,TemperatureF,Dew PointF,Humidity,Sea Level PressureIn,VisibilityMPH,Wind Direction,Wind SpeedMPH,Gust SpeedMPH,PrecipitationIn,Events,Conditions,WindDirDegrees,DateUTC
12:56 AM,18.0,10.0,71,29.56,10.0,SE,4.6,-,N/A,,Clear,140,2012-12-16 07:56:00
1:56 AM,19.9,10.9,68,29.55,10.0,SE,4.6,-,N/A,,Mostly Cloudy,130,2012-12-16 08:56:00
2:56 AM,23.0,12.0,63,29.52,10.0,South,6.9,-,N/A,,Overcast,190,2012-12-16 09:56:00
3:56 AM,26.1,14.0,60,29.52,10.0,SSW,10.4,-,N/A,,Partly Cloudy,210,2012-12-16 10:56:00
4:56 AM,27.0,14.0,58,29.53,10.0,SSW,5.8,-,N/A,,Scattered Clouds,210,2012-12-16 11:56:00
5:56 AM,28.9,16.0,58,29.53,10.0,SW,10.4,-,N/A,,Partly Cloudy,230,2012-12-16 12:56:00
6:56 AM,28.4,15.8,59,29.43,10.0,WSW,19.6,-,N/A,,Clear,240,2012-12-16 13:56:00
7:56 AM,28.0,17.1,63,29.57,10.0,WSW,17.3,-,N/A,,Clear,250,2012-12-16 14:56:00
8:56 AM,26.1,18.0,71,29.60,10.0,West,13.8,-,N/A,,Clear,260,2012-12-16 15:56:00
9:56 AM,30.9,19.0,61,29.61,10.0,WSW,25.3,33.4,N/A,,Clear,250,2012-12-16 16:56:00
10:56 AM,32.0,19.0,59,29.60,10.0,WSW,31.1,40.3,N/A,,Clear,240,2012-12-16 17:56:00
11:56 AM,32.0,18.0,56,29.60,10.0,WSW,28.8,36.8,N/A,,Clear,250,2012-12-16 18:56:00
12:56 PM,34.0,15.1,46,29.59,10.0,West,32.2,43.7,N/A,,Clear,260,2012-12-16 19:56:00
1:56 PM,32.0,16.0,52,29.60,10.0,WSW,29.9,40.3,N/A,,Clear,250,2012-12-16 20:56:00
2:56 PM,30.9,14.0,50,29.61,10.0,WSW,29.9,38.0,N/A,,Clear,250,2012-12-16 21:56:00
3:56 PM,30.0,12.9,49,29.63,10.0,West,18.4,-,N/A,,Clear,260,2012-12-16 22:56:00
4:56 PM,25.0,14.0,63,29.65,10.0,WSW,11.5,-,N/A,,Clear,250,2012-12-16 23:56:00
5:56 PM,24.1,15.1,69,29.64,10.0,WSW,6.9,-,N/A,,Clear,240,2012-12-17 00:56:00
6:56 PM,24.1,15.1,69,29.64,10.0,WSW,6.9,-,N/A,,Clear,240,2012-12-17 01:56:00
7:56 PM,23.0,14.0,68,29.63,10.0,South,5.8,-,N/A,,Clear,190,2012-12-17 02:56:00
8:56 PM,19.9,12.0,71,29.62,10.0,Calm,Calm,-,N/A,,Clear,0,2012-12-17 03:56:00
9:56 PM,19.9,12.0,71,29.58,10.0,SSE,6.9,-,N/A,,Clear,150,2012-12-17 04:56:00
10:56 PM,21.0,12.0,68,29.55,10.0,South,5.8,-,N/A,,Mostly Cloudy,190,2012-12-17 05:56:00
11:56 PM,21.9,12.0,66,29.51,10.0,SE,5.8,-,N/A,,Clear,140,2012-12-17 06:56:00